Temp
-10 -10 -10 -10 -10 -10 -11 -10 -10 -10 -11 -11 -11 -11 -10 -11 -10 -11 -11 -11 -11 -11 -10 -10 -10 -10 -9 -9 -9 -9 -9 -9 -9 -9 -9 -9 -9 -9 -9 -9 -9 -8 -9
-10 -10 -10 -11 -11 -11 -11 -10 -11 -11 -12 -12 -12 -12 -11 -11 -11 -11 -11 -11 -11 -11 -10 -10 -10 -10 -9 -9 -10 -9 -9 -9 -9 -9 -9 -9 -9 -9 -9 -9 -9 -8 -9
-10 -10 -10 -11 -11 -11 -11 -11 -11 -11 -12 -12 -12 -12 -10 -11 -11 -11 -11 -11 -11 -11 -10 -10 -10 -9 -9 -9 -9 -10 -9 -9 -10 -10 -10 -10 -9 -9 -9 -9 -9 -9 -9
-10 -10 -10 -10 -11 -11 -11 -11 -11 -12 -12 -12 -12 -12 -12 -11 -11 -12 -11 -11 -11 -10 -10 -10 -10 -10 -9 -10 -10 -10 -10 -10 -10 -10 -10 -10 -10 -10 -10 -9 -9 -9 -9
-10 -10 -10 -11 -11 -11 -11 -11 -11 -12 -12 -12 -12 -12 -12 -12 -12 -12 -11 -11 -11 -10 -10 -10 -10 -10 -10 -10 -11 -11 -10 -10 -10 -10 -10 -10 -10 -10 -10 -10 -10 -10 -10
-10 -10 -11 -11 -11 -11 -11 -11 -11 -11 -11 -11 -12 -12 -12 -12 -12 -11 -11 -11 -11 -11 -11 -10 -10 -9 -10 -10 -11 -10 -10 -10 -10 -10 -10 -10 -10 -10 -10 -10 -10 -10 -10
-11 -11 -11 -11 -11 -11 -11 -11 -11 -11 -11 -11 -11 -11 -11 -11 -11 -12 -11 -11 -11 -11 -11 -11 -10 -10 -10 -10 -11 -10 -10 -10 -10 -10 -10 -10 -10 -10 -10 -10 -10 -10 -10
-11 -11 -11 -11 -11 -11 -11 -11 -11 -11 -11 -12 -11 -11 -11 -11 -11 -11 -11 -11 -11 -11 -11 -11 -11 -10 -10 -11 -11 -10 -10 -10 -10 -11 -11 -11 -10 -11 -10 -11 -11 -11 -11
-11 -11 -11 -11 -11 -11 -11 -11 -12 -11 -11 -12 -12 -12 -12 -11 -9 -10 -11 -11 -10 -10 -11 -10 -11 -10 -11 -11 -12 -11 -10 -11 -11 -11 -11 -11 -11 -11 -11 -10 -11 -11 -11
-11 -11 -10 -11 -11 -11 -11 -11 -11 -12 -11 -11 -12 -12 -12 -11 -10 -10 -10 -10 -10 -10 -10 -10 -10 -10 -11 -11 -12 -11 -11 -11 -11 -11 -11 -11 -11 -11 -11 -11 -11 -10 -11
-11 -11 -11 -11 -11 -11 -11 -11 -11 -11 -11 -11 -11 -12 -12 -12 -11 -10 -11 -11 -11 -10 -10 -11 -10 -10 -11 -12 -11 -11 -11 -11 -11 -11 -11 -11 -11 -11 -11 -11 -11 -11 -11
-11 -11 -11 -11 -11 -11 -11 -11 -11 -11 -11 -11 -11 -11 -12 -11 -11 -11 -11 -11 -11 -11 -11 -10 -10 -11 -11 -12 -12 -11 -11 -11 -11 -11 -11 -11 -11 -11 -11 -11 -11 -11 -11
-11 -11 -11 -11 -11 -11 -11 -11 -11 -11 -11 -11 -11 -11 -11 -11 -11 -11 -11 -11 -11 -11 -11 -11 -11 -11 -12 -12 -12 -12 -11 -11 -11 -11 -11 -11 -11 -11 -11 -11 -11 -11 -11
-11 -11 -10 -11 -11 -11 -11 -11 -11 -11 -11 -11 -12 -12 -11 -11 -11 -11 -11 -11 -11 -11 -11 -11 -11 -11 -11 -11 -12 -13 -12 -11 -12 -11 -11 -11 -11 -11 -11 -11 -11 -11 -11
-11 -11 -11 -11 -11 -11 -11 -11 -11 -11 -11 -11 -11 -12 -12 -11 -11 -11 -11 -11 -11 -11 -11 -11 -11 -11 -11 -11 -13 -14 -13 -12 -12 -12 -12 -12 -12 -12 -12 -11 -11 -11 -11
-10 -11 -10 -11 -11 -11 -11 -11 -11 -11 -11 -11 -11 -11 -12 -11 -11 -11 -11 -11 -11 -12 -11 -11 -11 -11 -11 -11 -12 -13 -13 -13 -12 -12 -12 -12 -12 -11 -11 -11 -11 -11 -11
-10 -11 -11 -11 -11 -11 -11 -11 -11 -12 -12 -12 -12 -12 -11 -11 -11 -11 -11 -11 -11 -11 -11 -12 -12 -12 -12 -12 -12 -13 -14 -14 -13 -13 -12 -12 -12 -12 -11 -11 -11 -11 -11
-11 -11 -11 -11 -11 -11 -11 -11 -12 -12 -12 -12 -12 -11 -11 -12 -12 -12 -11 -11 -11 -11 -11 -11 -12 -12 -12 -12 -12 -13 -13 -14 -13 -13 -13 -12 -12 -12 -12 -12 -12 -12 -12
-11 -11 -11 -12 -11 -11 -11 -11 -12 -12 -12 -12 -12 -12 -12 -11 -12 -12 -12 -12 -11 -11 -11 -12 -12 -12 -13 -12 -12 -13 -13 -13 -14 -14 -13 -13 -12 -12 -12 -12 -12 -12 -12
-12 -12 -11 -12 -12 -12 -11 -11 -12 -12 -12 -12 -12 -12 -12 -12 -11 -11 -12 -12 -12 -12 -13 -13 -14 -13 -13 -13 -12 -12 -14 -14 -14 -14 -14 -13 -13 -13 -13 -12 -13 -12 -12
-13 -12 -12 -12 -12 -12 -12 -12 -12 -12 -12 -13 -13 -13 -13 -13 -13 -12 -12 -11 -12 -12 -12 -13 -14 -14 -14 -14 -13 -14 -14 -14 -14 -15 -14 -14 -13 -13 -13 -13 -13 -12 -12
-13 -13 -12 -12 -13 -13 -13 -13 -12 -12 -13 -12 -12 -13 -13 -13 -13 -13 -13 -13 -13 -13 -13 -13 -13 -14 -14 -14 -14 -14 -14 -15 -16 -15 -15 -14 -13 -13 -13 -13 -13 -12 -12
-13 -13 -13 -13 -13 -14 -13 -13 -13 -13 -12 -12 -13 -13 -13 -14 -13 -14 -14 -14 -14 -14 -14 -13 -13 -13 -13 -13 -14 -14 -14 -14 -15 -15 -15 -15 -14 -14 -14 -13 -13 -13 -12
-13 -14 -14 -14 -13 -14 -14 -13 -14 -14 -13 -13 -13 -13 -13 -14 -13 -14 -14 -14 -14 -14 -14 -14 -13 -13 -13 -13 -13 -13 -14 -14 -14 -14 -14 -14 -15 -14 -14 -13 -13 -13 -13
-14 -14 -14 -14 -14 -14 -14 -14 -14 -14 -14 -14 -13 -13 -13 -13 -13 -13 -14 -14 -14 -15 -14 -14 -14 -14 -14 -14 -14 -14 -14 -14 -14 -14 -14 -14 -14 -14 -14 -14 -14 -14 -14
-14 -14 -14 -14 -14 -14 -14 -14 -14 -14 -14 -14 -14 -14 -14 -13 -14 -14 -13 -14 -14 -14 -14 -14 -14 -14 -14 -14 -14 -15 -14 -14 -15 -15 -15 -15 -14 -14 -14 -14 -14 -14 -14
Height
5779 5777 5775 5774 5774 5773 5771 5770 5769 5768 5767 5766 5766 5767 5770 5772 5773 5776 5779 5782 5785 5788 5791 5794 5797 5800 5802 5804 5806 5809 5812 5814 5816 5817 5819 5822 5825 5826 5829 5829 5831 5832 5835
5774 5773 5772 5770 5769 5768 5767 5765 5764 5764 5762 5762 5762 5763 5764 5764 5766 5771 5775 5778 5780 5785 5788 5790 5793 5795 5799 5800 5802 5806 5809 5812 5814 5815 5818 5821 5823 5825 5827 5828 5831 5832 5834
5772 5770 5768 5767 5766 5764 5762 5760 5760 5759 5758 5757 5757 5755 5740 5757 5763 5767 5772 5775 5777 5781 5784 5787 5790 5792 5795 5798 5799 5803 5805 5808 5812 5814 5817 5820 5822 5823 5826 5827 5829 5832 5833
5768 5767 5765 5763 5761 5760 5759 5757 5757 5755 5753 5752 5752 5752 5749 5752 5758 5765 5766 5771 5774 5778 5779 5782 5785 5789 5791 5794 5797 5799 5804 5808 5811 5813 5816 5819 5821 5823 5824 5825 5828 5831 5833
5764 5764 5762 5759 5757 5756 5755 5754 5753 5751 5749 5749 5748 5748 5751 5753 5758 5761 5760 5767 5770 5774 5776 5777 5780 5786 5787 5790 5795 5799 5802 5806 5809 5811 5814 5817 5819 5822 5823 5825 5827 5829 5832
5761 5760 5758 5756 5754 5752 5751 5750 5749 5746 5745 5745 5746 5746 5748 5751 5755 5757 5758 5763 5767 5770 5772 5777 5774 5778 5784 5787 5792 5797 5801 5805 5808 5810 5812 5815 5818 5820 5822 5824 5826 5829 5831
5758 5756 5754 5752 5750 5748 5748 5746 5745 5743 5742 5743 5743 5743 5746 5748 5752 5753 5757 5761 5764 5766 5769 5773 5775 5780 5781 5784 5790 5795 5800 5803 5806 5809 5812 5815 5817 5819 5821 5823 5826 5828 5829
5755 5752 5750 5748 5747 5745 5744 5743 5741 5741 5739 5740 5739 5742 5744 5745 5748 5750 5755 5759 5761 5764 5767 5772 5775 5779 5781 5784 5789 5794 5798 5802 5805 5808 5811 5813 5816 5818 5820 5823 5824 5826 5828
5752 5748 5747 5745 5743 5742 5741 5741 5739 5739 5737 5737 5736 5740 5739 5739 5737 5749 5753 5757 5759 5762 5765 5769 5773 5775 5780 5783 5787 5793 5796 5800 5804 5807 5810 5812 5814 5817 5819 5821 5823 5825 5827
5748 5745 5744 5742 5740 5740 5739 5738 5737 5737 5735 5734 5733 5737 5737 5738 5732 5747 5752 5755 5757 5760 5764 5766 5769 5773 5776 5781 5786 5791 5795 5798 5802 5805 5808 5810 5813 5815 5818 5820 5821 5823 5826
5744 5742 5740 5739 5738 5738 5737 5735 5734 5734 5732 5732 5731 5731 5732 5735 5737 5740 5746 5751 5754 5756 5760 5763 5765 5770 5774 5779 5784 5788 5792 5797 5800 5803 5805 5807 5810 5812 5815 5818 5820 5822 5824
5739 5738 5736 5736 5734 5735 5734 5733 5731 5732 5731 5729 5730 5730 5730 5732 5736 5736 5744 5746 5749 5753 5756 5759 5760 5764 5770 5775 5780 5785 5789 5793 5797 5800 5802 5805 5807 5809 5812 5814 5816 5818 5820
5734 5733 5732 5732 5731 5732 5732 5731 5729 5728 5728 5726 5726 5727 5729 5731 5733 5733 5739 5743 5747 5749 5753 5756 5757 5761 5767 5772 5776 5781 5786 5789 5792 5795 5799 5801 5804 5806 5809 5811 5813 5815 5817
5729 5728 5727 5727 5727 5728 5728 5728 5728 5727 5726 5724 5724 5726 5727 5728 5729 5730 5735 5739 5743 5746 5749 5752 5755 5759 5764 5768 5770 5776 5781 5784 5788 5791 5794 5798 5800 5804 5806 5807 5810 5812 5813
5723 5723 5723 5722 5722 5723 5724 5724 5725 5726 5725 5724 5722 5721 5723 5724 5726 5728 5731 5735 5738 5742 5745 5747 5751 5755 5759 5763 5766 5771 5776 5780 5783 5787 5789 5793 5797 5799 5801 5803 5805 5807 5808
5717 5716 5717 5717 5718 5718 5719 5720 5720 5722 5724 5723 5723 5723 5722 5723 5722 5723 5725 5730 5734 5738 5741 5743 5747 5751 5754 5757 5761 5765 5771 5775 5779 5781 5784 5788 5791 5794 5796 5798 5800 5802 5803
5710 5711 5712 5712 5712 5713 5714 5714 5716 5717 5717 5720 5722 5723 5721 5719 5721 5721 5721 5725 5730 5731 5735 5739 5742 5746 5747 5752 5755 5759 5763 5768 5772 5777 5779 5782 5784 5788 5790 5791 5794 5796 5798
5702 5704 5704 5706 5706 5707 5707 5709 5711 5712 5713 5714 5716 5717 5718 5720 5720 5719 5720 5721 5724 5728 5729 5734 5738 5740 5741 5745 5749 5754 5759 5763 5766 5770 5773 5776 5779 5782 5784 5786 5788 5790 5793
5692 5694 5697 5698 5699 5701 5702 5702 5704 5707 5709 5709 5711 5712 5715 5716 5717 5718 5718 5721 5723 5723 5724 5727 5730 5734 5737 5740 5746 5750 5753 5758 5761 5764 5768 5771 5774 5776 5779 5780 5783 5785 5787
5682 5684 5686 5689 5690 5693 5695 5696 5697 5699 5702 5704 5705 5706 5707 5710 5713 5715 5715 5716 5717 5717 5720 5722 5723 5727 5731 5735 5738 5741 5746 5751 5754 5758 5761 5763 5766 5769 5771 5773 5776 5778 5779
5671 5674 5676 5679 5680 5683 5685 5688 5690 5692 5693 5695 5697 5700 5702 5704 5706 5709 5709 5712 5713 5715 5715 5717 5720 5723 5726 5728 5731 5735 5739 5743 5747 5750 5754 5756 5759 5761 5764 5765 5767 5770 5772
5658 5662 5664 5667 5670 5672 5675 5678 5681 5683 5685 5686 5688 5693 5696 5700 5701 5701 5703 5705 5706 5708 5710 5713 5715 5718 5721 5725 5727 5729 5734 5737 5739 5743 5744 5747 5750 5752 5756 5757 5759 5761 5763
5646 5650 5652 5654 5657 5660 5664 5668 5671 5673 5675 5678 5682 5684 5687 5689 5690 5693 5696 5700 5702 5704 5706 5707 5709 5712 5714 5717 5721 5725 5727 5729 5732 5736 5738 5740 5741 5743 5745 5747 5749 5751 5753
5633 5636 5638 5641 5643 5648 5652 5655 5659 5662 5665 5669 5671 5672 5674 5677 5680 5682 5687 5690 5694 5697 5698 5701 5702 5704 5706 5709 5712 5717 5719 5722 5724 5727 5730 5730 5732 5734 5736 5738 5739 5741 5743
5618 5622 5625 5629 5631 5633 5637 5642 5645 5650 5654 5658 5660 5662 5664 5667 5671 5673 5677 5680 5684 5686 5689 5692 5694 5696 5698 5701 5703 5705 5709 5712 5715 5717 5719 5720 5722 5724 5725 5727 5728 5729 5730
5603 5607 5610 5613 5617 5620 5624 5627 5632 5635 5639 5644 5647 5650 5654 5658 5661 5664 5666 5669 5670 5675 5679 5682 5685 5688 5691 5692 5695 5696 5699 5701 5703 5706 5708 5709 5710 5712 5714 5715 5716 5718 5719
Wind_Speed
17 18 20 21 19 20 22 23 23 24 27 28 29 28 26 29 29 31 29 29 30 28 28 27 30 27 27 27 23 22 21 22 21 19 18 17 15 15 15 14 14 14 15
19 18 19 21 20 21 23 24 23 24 26 27 26 22 25 29 33 31 29 29 32 27 25 25 25 32 31 25 27 24 23 22 21 20 18 17 16 16 15 14 15 15 15
19 20 20 20 21 21 22 23 22 25 25 24 24 24 26 26 30 25 29 29 27 27 29 31 29 28 29 25 24 27 25 23 22 20 19 18 17 16 16 15 14 15 14
19 20 21 21 21 22 21 22 22 22 21 19 24 24 28 23 22 29 26 28 24 31 24 32 33 30 32 28 25 19 22 20 20 20 19 19 17 16 15 14 14 14 13
20 20 21 21 21 23 21 20 20 20 18 17 19 22 27 30 21 24 24 28 21 27 25 23 35 33 28 30 24 21 19 21 20 19 19 19 18 17 16 15 14 13 13
21 21 20 21 22 22 21 19 16 19 18 17 17 20 23 27 26 29 24 20 23 26 28 33 25 35 32 31 27 24 23 23 22 20 20 20 19 16 17 17 15 14 13
22 21 20 20 21 20 20 17 13 14 16 13 14 16 23 25 28 29 26 20 22 24 28 35 32 24 32 33 28 26 25 23 21 20 20 20 19 17 16 16 15 14 15
22 21 19 19 18 18 18 15 13 11 13 12 13 15 19 26 26 27 23 25 25 22 27 27 25 24 27 28 26 27 23 21 20 21 21 20 21 20 16 14 14 14 13
21 21 18 18 16 16 16 14 12 11 13 14 12 13 21 21 40 17 22 21 24 26 24 24 30 25 25 25 24 24 22 21 21 20 20 20 20 20 18 17 16 16 15
19 19 18 16 15 15 14 14 12 12 13 14 16 8 19 10 29 21 29 26 24 20 26 25 31 31 29 26 26 25 23 21 20 20 20 21 21 20 19 18 19 18 16
18 19 18 16 15 14 14 14 14 12 13 13 14 15 19 17 35 41 29 23 18 18 21 11 32 37 32 30 31 29 26 23 22 21 21 21 21 21 21 19 20 19 17
18 19 19 17 15 13 13 16 13 11 11 12 15 12 13 14 31 21 31 16 19 19 13 14 27 37 36 36 34 32 28 25 25 24 25 25 24 23 21 21 21 21 21
20 19 20 18 16 14 13 14 14 14 10 7 11 14 13 18 16 28 23 18 17 19 20 13 17 33 35 37 35 34 34 30 28 28 28 29 27 26 24 24 24 23 23
21 21 20 20 17 17 15 14 12 12 13 9 9 15 18 19 16 19 25 24 19 17 23 19 13 23 41 41 42 39 34 34 31 29 29 28 27 26 26 26 25 25 25
23 22 21 21 20 18 18 17 13 11 11 12 8 8 15 20 17 23 30 29 27 21 21 19 16 18 25 38 39 39 37 36 32 31 31 29 28 28 28 27 27 27 27
26 25 22 23 22 21 20 20 17 14 11 10 11 9 9 10 18 21 29 30 26 25 23 20 22 20 24 32 38 41 40 35 33 30 31 29 29 30 28 27 27 27 28
29 28 24 24 26 24 22 22 21 19 15 12 11 13 12 11 10 17 22 27 28 24 23 22 24 28 27 37 39 44 44 41 38 31 32 31 31 31 30 30 30 30 30
32 30 29 27 28 28 26 25 24 24 22 18 16 13 13 14 14 15 17 20 25 32 29 30 28 25 27 33 38 46 47 44 44 36 34 33 32 33 33 32 32 32 32
35 33 33 32 31 31 31 29 27 26 26 25 22 20 16 16 17 18 18 19 20 20 22 26 24 28 31 36 38 42 45 44 38 35 34 33 33 34 34 34 33 33 33
39 37 38 37 34 33 33 33 31 29 28 27 27 26 22 20 21 21 22 22 20 18 17 17 23 29 37 41 45 43 41 42 41 37 33 32 33 34 36 36 36 35 35
42 40 41 39 38 37 36 35 35 32 32 32 31 30 28 26 26 25 23 24 25 26 23 21 19 22 24 36 42 36 39 44 45 39 38 37 35 35 37 38 38 38 39
44 41 43 44 41 42 41 39 38 38 37 36 37 34 33 33 33 28 27 28 29 30 29 30 29 28 28 28 29 31 34 33 31 35 38 36 38 41 42 42 41 41 42
46 43 43 45 46 44 44 42 40 41 42 41 38 37 37 38 37 35 33 33 33 33 33 34 35 35 35 35 35 37 38 38 41 41 41 40 40 42 42 43 45 48 48
46 47 47 48 49 48 46 47 44 44 44 43 44 43 44 43 42 41 40 38 37 37 36 37 37 37 37 38 37 40 41 41 44 45 47 46 46 48 47 50 51 52 52
46 48 50 51 53 53 53 50 50 48 47 46 47 49 49 48 47 47 45 43 43 40 42 40 41 41 40 41 43 43 44 42 43 44 47 48 49 50 51 52 53 53 54
48 50 52 54 55 55 55 55 54 53 52 50 51 51 53 52 52 50 49 47 46 46 46 46 46 46 45 46 46 47 47 46 45 46 46 47 48 50 51 53 55 55 56
Wind_Direction
306 307 289 286 287 287 292 292 289 287 281 280 279 275 255 237 232 232 235 236 239 240 243 245 242 233 229 226 209 207 203 201 197 189 191 193 189 185 187 179 176 175 177
305 308 302 288 288 286 290 294 288 289 285 279 278 274 241 232 229 230 231 235 236 238 240 237 237 236 227 229 200 200 198 196 195 190 189 192 191 188 188 180 183 179 179
310 308 302 287 280 283 290 294 286 294 285 275 276 253 222 224 235 230 231 235 236 237 235 231 232 224 230 216 193 195 192 193 195 192 190 191 191 185 187 183 182 179 178
312 304 302 298 284 284 294 294 292 294 286 277 266 242 233 218 225 227 223 225 229 231 237 227 223 223 219 206 201 191 182 191 195 196 194 193 192 192 192 189 189 184 184
305 302 297 295 288 288 293 293 297 298 289 273 261 243 231 233 231 231 220 223 229 235 232 229 231 219 200 195 189 191 191 194 197 195 195 196 198 199 195 192 189 188 189
297 298 291 293 289 288 293 294 302 303 281 276 253 236 230 235 234 239 246 225 223 233 227 203 172 181 192 186 184 188 192 197 198 199 197 199 199 200 197 196 195 197 196
294 291 287 291 294 293 292 295 304 302 282 262 245 227 224 222 230 238 241 237 232 231 219 211 220 226 189 180 181 184 199 198 198 200 201 201 202 201 201 202 199 197 200
289 286 286 292 298 298 292 291 299 294 277 260 247 232 232 223 224 238 240 231 231 226 220 219 223 224 192 176 183 190 196 198 200 202 202 203 205 206 202 199 201 205 211
285 281 285 289 298 303 292 282 289 284 276 251 243 238 248 249 217 224 232 218 216 227 222 216 219 221 202 194 190 200 200 198 202 202 203 205 209 211 208 206 205 207 212
278 274 281 285 296 305 295 281 278 268 273 273 252 261 238 231 197 234 229 218 210 203 209 222 228 220 208 204 201 207 207 203 204 206 206 208 212 212 213 210 214 214 220
271 268 276 283 290 304 299 287 278 277 276 269 262 270 269 248 207 215 216 205 209 182 190 227 213 222 208 207 209 209 208 207 205 208 209 213 215 218 218 218 224 224 223
265 264 266 276 277 290 298 295 284 277 258 266 250 269 259 213 206 207 207 216 202 210 225 220 201 226 205 213 210 211 213 214 213 212 213 216 218 221 222 223 226 228 226
262 260 262 266 268 274 287 293 297 283 284 271 267 267 249 222 223 233 206 208 213 212 225 210 203 200 206 214 219 217 216 218 216 218 218 220 220 225 226 228 230 234 236
260 256 257 260 263 260 269 280 290 287 280 277 247 243 230 222 219 202 202 211 227 216 210 214 207 217 210 216 223 213 219 217 223 222 224 227 228 232 233 234 236 238 239
258 258 253 258 255 255 257 265 272 283 283 279 273 251 224 222 229 220 215 221 231 222 218 215 232 220 222 223 220 213 218 220 224 225 227 230 233 234 236 237 238 239 243
257 256 253 254 258 252 253 254 259 264 268 275 266 251 221 217 216 223 216 214 214 227 231 235 238 228 226 226 227 214 217 224 224 228 233 233 237 240 240 241 242 242 240
260 262 256 250 251 255 250 255 252 253 258 257 256 251 243 221 207 205 201 213 223 225 229 226 228 226 227 229 222 216 214 216 217 229 234 236 238 240 240 239 240 239 237
265 260 256 250 248 248 250 248 251 251 250 250 255 251 252 243 218 203 198 210 225 229 227 224 231 233 230 232 227 219 220 224 222 228 235 239 241 243 242 240 238 239 240
255 255 254 252 247 245 249 250 247 248 250 251 250 252 242 241 236 226 216 211 210 213 214 218 223 229 235 231 232 224 226 227 226 230 237 240 242 243 244 243 242 241 242
253 251 251 250 250 246 246 250 250 248 248 249 249 246 246 244 239 234 230 228 225 223 223 221 222 228 226 236 240 226 223 228 226 227 235 240 244 246 245 244 245 245 245
254 250 250 250 249 245 243 243 247 247 248 247 247 248 245 244 245 239 237 236 235 230 228 232 225 220 224 225 225 227 232 233 227 229 236 241 247 249 248 246 247 249 250
253 248 246 248 248 248 246 241 240 245 246 247 248 247 247 245 242 242 240 239 240 236 233 236 238 237 232 230 229 232 232 232 235 241 239 241 244 244 246 248 249 252 252
252 248 243 245 246 245 246 244 240 238 243 247 247 250 249 246 245 244 242 242 240 241 240 238 238 240 241 239 240 238 236 238 242 241 242 242 247 248 249 251 251 251 252
245 245 244 243 247 248 246 246 243 241 238 240 242 243 243 245 247 247 245 242 242 244 242 241 242 243 243 246 247 247 244 242 244 246 248 249 250 248 246 251 250 251 253
240 240 242 240 242 244 246 244 243 241 241 239 241 242 243 244 244 246 247 248 249 248 248 246 245 245 245 246 247 249 250 247 247 246 247 248 250 251 252 253 254 254 254
237 236 236 238 238 240 242 244 242 242 240 238 238 239 240 242 244 244 245 247 251 252 252 251 251 249 247 248 249 251 250 251 251 250 249 250 251 252 253 254 256 258 259